Terug naar catalogus

STARLINK-37630

ActiefCommunicatieSSO
NORAD 69301·PAYLOAD·🇺🇸 United States

Gelanceerd May 30, 2026 vanaf Vandenberg Space Force Base

Loading…

Volgende Passages (komende 24 uur)

TLE

VersSource: CelesTrak SupGP

Epoch: Sep 14, 2026, 22:23 UTC

1 69301C 26119F   26257.93312500  .00049325  00000+0  15314-2 0  2578
2 69301  97.2824 282.7132 0001136  93.0656  62.2600 15.33409312    16

Volg STARLINK-37630 in realtime met AllMySat

Download on the App Store